Regional Weather Roundup
Issued by NWS

Home | Current Version | Previous Version | Graphics & Text | Print | Product List | Glossary On
Versions: 1 2 3 4 5 6 7 8 9 10 11 12 13 14 15 16 17 18 19 20 21 22 23 24 25 26 27 28 29 30 31 32 33 34 35 36 37 38 39 40 41 42 43 44 45 46 47 48 49 50
000
ASUS43 KLOT 201958
RWRIL

ILLINOIS REGIONAL WEATHER ROUNDUP
NATIONAL WEATHER SERVICE CHICAGO/ROMEOVILLE IL
200 PM CST SAT DEC 20 2014

NOTE: "FAIR" INDICATES FEW OR NO CLOUDS BELOW 12,000 FEET WITH NO
SIGNIFICANT WEATHER AND/OR OBSTRUCTIONS TO VISIBILITY.

* THESE STATIONS ARE NOT UNDER NWS QUALITY CONTROL. THEY ALSO MAY NOT
  REPORT WEATHER SUCH AS PRECIPITATION OR FOG.

ILZ001-002-007-009-015-016-024-202100-
NORTHWEST ILLINOIS

CITY           SKY/WX    TMP DP  RH WIND       PRES   REMARKS
MOLINE         CLOUDY    34  27  75 SE5       30.20F HAZE    WCI  30
$$

ILZ003-004-008-010-011-017-018-202100-
NORTH CENTRAL ILLINOIS

CITY           SKY/WX    TMP DP  RH WIND       PRES   REMARKS
ROCKFORD       NOT AVBL
$$

ILZ005-006-012>014-019>023-202100-
NORTHEAST ILLINOIS

CITY           SKY/WX    TMP DP  RH WIND       PRES   REMARKS
CHICAGO-OHARE  CLOUDY    32  23  69 SW7       30.23F WCI  26
CHICAGO-MIDWAY NOT AVBL
AURORA         CLOUDY    32  25  75 S5        30.23F HAZE    WCI  27
WAUKEGAN       NOT AVBL
DUPAGE AIRPORT CLOUDY    32  24  72 S6        30.22F WCI  26
WHEELING       CLOUDY    33  23  66 SW7       30.25F WCI  27
NORTHERLY ISL    N/A     33  24  70 SW9         N/A  WCI  25
$$

LMZ740>746-202100-
SOUTHERN LAKE MICHIGAN

STATION/POSITION SKY/WX   TEMP    WIND        PRES    VSBY  WAVE
                          AIR SEA DIR/SP/G                  HT/PER
                          (F)     (DEG/KT/KT) (MB)    (MI)  (FT/S)
WAUKEGAN HARBOR            32     250/  3/  8   N/A
HARRISON CRIB              32     200/ 12/ 14   N/A
BURNHAM HARBOR             33     240/  6/ 10   N/A
CALUMET HARBOR             33     210/  7/ 10 1022.9F
$$

ILZ025>027-034>036-040-047-049-050-058-095>099-202100-
WEST-CENTRAL ILLINOIS

CITY           SKY/WX    TMP DP  RH WIND       PRES   REMARKS
QUINCY         CLOUDY    36  32  85 S6        30.19F FOG     WCI  31
$$

ILZ028>032-037-038-041>044-048-051>054-059>061-202100-
CENTRAL ILLINOIS

CITY           SKY/WX    TMP DP  RH WIND       PRES   REMARKS
PEORIA         NOT AVBL
SPRINGFIELD    CLOUDY    38  30  73 S8        30.23F WCI  32
TAYLORVILLE    NOT AVBL
$$

ILZ033-039-045-046-055>057-062-063-202100-
EAST-CENTRAL ILLINOIS

CITY           SKY/WX    TMP DP  RH WIND       PRES   REMARKS
CHAMPAIGN      CLOUDY    34  26  72 S7        30.25S WCI  28
$$

ILZ079-100>102-202100-
SOUTHWEST ILLINOIS

CITY           SKY/WX    TMP DP  RH WIND       PRES   REMARKS
CAHOKIA*       CLOUDY    42  33  70 S6        30.23F
$$

ILZ064>066-069>071-074>076-080>082-084>086-088>090-092>094-202100-
SOUTH-CENTRAL ILLINOIS

CITY           SKY/WX    TMP DP  RH WIND       PRES   REMARKS
CARBONDALE     CLOUDY    41  29  62 E3        30.24F
$$

ILZ067-068-072-073-078-083-087-091-202100-
SOUTHEAST ILLINOIS

CITY           SKY/WX    TMP DP  RH WIND       PRES   REMARKS
$$

ABBREVIATIONS USED IN REMARKS
   TC - TEMPERATURE IN CELSIUS
  WCI - WIND CHILL INDEX
   HX - HEAT INDEX
  VSB - VISIBILITY
$$




USA.gov is the U.S. government's official web portal to all federal, state and local government web resources and services.